Vertical_Velocity
-3 1 8 -4 1 -4 -3 -2 -2 -1 -2 -4 0 0 -2 -0 2 3 -2 -2 -1 -1 0 1 -0 0 -0 3 -2 -2 5 6 4 -4 -3 1 2 -2 -5 0 1 -2 -0 -0 1
1 1 0 2 -5 -5 7 -2 -1 -1 0 -2 -3 -2 -0 1 2 -0 -1 -3 2 0 -2 3 -2 1 0 1 1 -5 0 6 0 -1 -0 -4 1 -1 0 -4 -2 -2 -2 -1 -1
1 3 1 1 -3 -3 1 -4 1 -3 -1 -3 2 -2 -1 1 4 -4 0 -1 -3 2 -1 -0 4 -4 3 -1 1 -0 1 -5 -1 2 3 -2 -3 -10 -2 -3 -3 -4 -3 -4 -3
-2 4 0 0 3 1 -0 -0 3 -2 -2 -0 -2 -4 0 3 5 -4 4 -1 -3 0 1 -1 3 2 -2 3 -1 2 1 -2 3 -3 1 3 -0 -3 -4 17 7 -1 -4 -3 -1
-3 -3 2 -9 -0 4 -4 -2 2 -2 -0 2 -6 1 -0 -5 4 -0 -1 2 -4 -0 -1 -0 -3 7 2 -4 2 -0 1 -1 2 -1 -2 -3 -1 -4 -3 -2 -2 -3 1 -1 -4
3 -1 2 0 1 -1 -0 -1 -0 -3 -0 -0 -4 2 -5 -4 1 -3 -2 6 -3 -0 -4 1 -4 -0 3 -1 -2 -8 -0 1 2 -2 -1 -2 2 1 -0 3 -2 -2 0 -1 -3
2 -0 -5 -2 0 0 -3 -1 -0 2 1 -2 -4 -2 -11 12 3 1 -6 5 -0 3 0 -2 2 -2 0 6 -3 -4 -2 -1 -1 4 -5 -3 -3 -18 6 2 -1 -10 -1 -0 -6
1 1 -1 -2 -3 -0 5 -1 2 1 4 -2 -3 -1 -24 10 0 2 2 2 0 4 -4 1 -2 1 1 -10 2 3 -6 0 9 5 -3 -3 -9 13 0 -1 -4 1 2 -7 4
1 2 -4 -2 1 -0 2 3 -3 -1 1 2 -2 -2 -3 -9 2 11 3 5 5 2 -1 3 -2 4 -6 3 2 -4 -9 7 18 1 2 -2 -8 17 -4 -4 -1 -3 5 2 4
-1 1 -2 -0 0 -3 -1 1 3 -3 5 -7 1 6 -1 0 -6 -3 -0 3 4 2 3 1 3 -2 2 5 -16 -4 -6 -3 -7 22 0 4 -6 10 -6 -3 -3 -1 -3 -5 -4
-1 2 -0 0 6 -2 -1 -4 2 -4 -2 -1 -10 10 2 3 2 1 -4 7 7 0 -3 -3 -7 -17 -6 -6 1 9 4 1 1 4 -0 -7 -5 -7 11 -6 -5 -4 -0 -8 -9
-7 -8 -0 3 -3 2 1 0 -2 -7 -10 -3 3 -0 -9 1 0 1 3 -1 -1 -15 5 7 -47 26 3 -4 -3 6 2 -6 -2 7 12 -2 -3 -2 -6 1 -4 -3 -1 -5 -1
2 3 2 -3 -5 3 0 2 -0 -5 -2 -12 7 -6 2 -0 -0 -2 -1 5 2 25 -11 -0 -21 -1 5 2 0 -2 -4 0 1 -1 5 -1 -12 -9 -26 -2 2 2 0 -2 -0
-1 3 4 -3 -0 -0 3 -4 2 3 -0 -11 -16 -29 -17 4 -59 17 4 9 -1 -14 16 -8 22 8 4 -3 10 -3 17 4 3 3 -5 22 -24 -5 -12 4 -5 -1 -0 -3 4
1 2 2 -2 -4 -2 -1 -4 0 3 3 4 0 -8 -6 -36 56 -22 13 1 -11 -7 17 -73 -0 -7 -10 -26 4 -25 3 6 2 -1 12 -7 25 -35 -3 -9 -4 0 -1 -2 -7
2 3 4 3 -3 -1 6 -2 0 -1 -13 -3 3 -2 3 0 4 18 -8 6 25 10 5 -16 20 0 -12 9 3 15 2 0 2 2 11 2 11 -27 -7 -17 -6 -0 -3 -3 -5
4 5 0 2 -6 4 2 -2 6 4 -6 -23 -0 -1 3 1 -1 2 5 -1 -18 14 -11 4 -20 -0 -3 -1 6 12 11 4 11 15 -19 1 16 -25 5 13 -2 -2 1 2 1
5 4 1 1 0 5 5 16 3 -13 -16 -2 9 5 -4 1 -2 -5 10 1 -0 6 8 2 21 -25 0 -13 -12 -13 0 -15 -7 -1 -19 14 -17 -31 6 -15 6 1 -1 7 3
5 2 -2 2 3 9 6 7 -35 -8 -11 -1 16 5 -1 -2 10 0 -4 -6 5 -17 -1 15 -31 34 6 9 4 -9 -19 15 0 -6 12 -10 -18 8 -14 -15 -13 -6 -1 1 2
-2 0 6 7 6 13 21 -14 -21 -17 11 2 -2 7 3 6 3 15 10 -22 -1 3 21 -25 17 -1 9 19 -0 -6 35 12 8 3 1 -15 -7 -30 5 -9 -2 -5 -7 10 3
5 2 4 7 19 29 -9 -29 -5 -9 8 11 -2 -5 -9 -5 24 -1 -14 -1 2 -12 12 3 39 -14 42 -26 -9 13 8 2 7 -5 -1 -2 -40 -5 18 -9 -6 -3 -1 5 -1
1 1 -4 15 18 4 -12 -14 2 -3 3 -4 6 -7 -4 10 -3 14 -16 -6 16 7 2 -37 10 7 -19 -1 7 3 -14 0 0 -10 -9 3 -112 -1 -11 -5 -8 -3 -3 1 -8
-2 4 -2 10 -8 -0 8 -17 -1 -0 -1 3 -2 -16 12 7 32 -4 -4 9 13 12 -12 -9 -24 13 20 36 13 -16 17 11 3 20 -21 12 -99 -12 -4 -1 -5 -4 -1 5 5
17 3 10 34 -7 7 8 -19 -13 -2 -6 1 -12 20 14 -8 -5 -15 -9 -0 3 -0 -5 46 -4 -8 -29 -74 25 -0 1 -4 9 16 -41 -35 -6 6 -2 -5 2 -2 -2 -2 3
-5 -15 -6 -26 0 -8 20 7 -4 -1 -10 8 -1 -13 -10 10 11 -17 -9 -3 -1 6 -4 33 -3 13 -12 -8 30 -2 -5 -6 11 -37 11 -66 -11 -1 6 1 -10 9 5 -5 -3
21 -20 7 8 17 14 2 -26 -3 5 14 -19 -10 -14 9 -8 1 -2 17 1 3 -20 18 19 -35 10 -12 10 6 7 9 11 -12 8 -5 31 -54 12 24 17 7 -2 5 -3 -1
14 -1 11 -6 4 21 -40 -43 -41 32 5 3 -30 28 19 -77 17 5 9 18 7 -2 9 8 -6 17 -29 9 17 34 -85 17 4 12 -6 -13 9 -15 -7 8 -1 -6 -8 0 -0
Height
3121 3122 3124 3126 3128 3131 3132 3136 3138 3142 3144 3145 3146 3149 3151 3155 3157 3158 3160 3161 3162 3162 3164 3163 3163 3164 3165 3165 3166 3167 3171 3168 3170 3171 3171 3171 3172 3174 3175 3177 3178 3179 3181 3182 3181
3113 3116 3118 3122 3122 3125 3127 3130 3133 3136 3139 3141 3143 3146 3148 3151 3154 3154 3158 3158 3159 3161 3162 3163 3162 3162 3164 3164 3165 3167 3169 3168 3167 3168 3169 3169 3170 3171 3174 3175 3177 3178 3179 3180 3180
3104 3108 3111 3114 3117 3119 3121 3124 3127 3129 3133 3136 3139 3140 3144 3147 3150 3149 3153 3156 3156 3158 3159 3161 3162 3162 3162 3162 3163 3163 3167 3166 3165 3166 3167 3167 3169 3169 3172 3173 3175 3176 3176 3178 3179
3096 3098 3102 3106 3109 3112 3115 3117 3121 3124 3126 3130 3133 3136 3139 3142 3147 3145 3148 3151 3153 3155 3157 3158 3160 3160 3161 3161 3161 3162 3161 3163 3164 3163 3165 3167 3166 3168 3169 3174 3171 3171 3172 3174 3176
3087 3090 3092 3096 3101 3105 3108 3110 3113 3117 3120 3123 3127 3130 3134 3136 3139 3141 3142 3146 3149 3151 3153 3155 3157 3158 3158 3158 3158 3158 3159 3160 3161 3160 3161 3163 3164 3165 3166 3167 3167 3168 3169 3171 3173
3079 3081 3084 3086 3090 3095 3101 3103 3105 3109 3113 3116 3120 3124 3127 3129 3135 3137 3140 3141 3143 3146 3149 3151 3152 3154 3154 3155 3156 3154 3155 3156 3157 3159 3158 3159 3160 3160 3162 3163 3164 3165 3166 3167 3169
3071 3072 3075 3079 3082 3086 3090 3095 3099 3102 3105 3108 3113 3116 3118 3123 3129 3131 3135 3137 3139 3140 3144 3145 3146 3149 3150 3151 3150 3151 3152 3152 3152 3153 3155 3156 3155 3153 3156 3158 3160 3161 3162 3163 3164
3063 3064 3067 3070 3074 3076 3079 3084 3088 3094 3097 3101 3105 3108 3106 3113 3121 3126 3129 3132 3134 3136 3138 3139 3141 3143 3146 3146 3147 3148 3148 3149 3149 3149 3150 3152 3150 3152 3151 3152 3151 3155 3156 3158 3158
3058 3059 3061 3064 3065 3069 3070 3073 3078 3082 3086 3093 3097 3100 3098 3103 3112 3119 3122 3127 3128 3130 3132 3133 3136 3138 3140 3142 3144 3142 3141 3143 3147 3144 3146 3147 3147 3147 3145 3146 3146 3148 3151 3152 3153
3053 3054 3056 3059 3059 3061 3062 3065 3069 3074 3078 3081 3086 3095 3092 3094 3099 3108 3115 3120 3122 3125 3129 3128 3129 3130 3131 3138 3133 3137 3134 3137 3140 3142 3138 3141 3141 3143 3140 3140 3140 3141 3141 3142 3144
3047 3049 3051 3052 3053 3054 3058 3059 3066 3068 3068 3071 3074 3083 3084 3087 3092 3098 3105 3111 3114 3117 3119 3120 3125 3114 3124 3130 3134 3134 3132 3131 3135 3136 3134 3134 3136 3136 3138 3136 3134 3135 3134 3134 3134
3042 3046 3048 3047 3047 3048 3053 3056 3057 3058 3058 3064 3066 3069 3075 3079 3086 3092 3098 3102 3103 3103 3112 3117 3104 3116 3122 3124 3128 3127 3126 3125 3129 3133 3128 3127 3126 3129 3129 3128 3127 3127 3126 3125 3126
3037 3039 3041 3041 3041 3045 3049 3054 3054 3054 3054 3052 3057 3057 3069 3073 3075 3083 3090 3093 3094 3098 3098 3101 3097 3113 3114 3115 3118 3120 3118 3123 3124 3127 3122 3121 3114 3118 3119 3119 3118 3118 3119 3118 3118
3029 3033 3035 3035 3038 3042 3046 3047 3051 3050 3053 3046 3045 3047 3055 3064 3058 3070 3078 3087 3086 3087 3095 3096 3097 3104 3106 3106 3112 3112 3115 3118 3119 3122 3112 3116 3097 3107 3110 3109 3108 3108 3109 3110 3110
3023 3026 3028 3030 3031 3037 3041 3044 3048 3049 3052 3041 3038 3038 3042 3049 3059 3058 3069 3075 3076 3079 3089 3078 3085 3091 3094 3089 3107 3099 3114 3113 3114 3113 3112 3103 3103 3095 3100 3097 3099 3100 3101 3100 3100
3015 3019 3022 3023 3026 3031 3035 3038 3044 3050 3043 3034 3028 3029 3033 3036 3044 3055 3056 3062 3071 3073 3076 3076 3082 3083 3078 3094 3098 3103 3107 3109 3109 3110 3099 3095 3101 3064 3084 3086 3089 3091 3092 3091 3092
3006 3010 3013 3017 3019 3025 3030 3034 3043 3039 3030 3027 3022 3023 3028 3029 3032 3041 3046 3049 3053 3061 3063 3062 3070 3073 3078 3085 3091 3094 3098 3102 3099 3097 3075 3087 3087 3051 3073 3078 3080 3081 3084 3083 3083
2997 3000 3004 3008 3012 3018 3023 3028 3028 3020 3020 3022 3023 3025 3027 3028 3026 3030 3040 3042 3045 3048 3049 3053 3060 3059 3058 3063 3076 3081 3085 3086 3083 3078 3068 3076 3058 3059 3065 3068 3070 3071 3074 3077 3073
2986 2989 2992 2999 3003 3009 3014 3012 3006 3012 3016 3019 3022 3022 3021 3023 3026 3025 3028 3028 3031 3036 3040 3040 3040 3053 3053 3059 3068 3071 3073 3067 3082 3077 3076 3056 3049 3054 3057 3060 3063 3063 3064 3065 3064
2975 2978 2980 2989 2994 2998 3000 2995 2997 3005 3010 3010 3014 3014 3012 3016 3018 3019 3022 3017 3020 3026 3032 3032 3038 3043 3046 3055 3058 3055 3062 3071 3074 3068 3062 3034 3039 3038 3049 3050 3053 3054 3056 3056 3054
2967 2966 2971 2981 2986 2987 2981 2982 2987 2993 3002 3005 3004 3006 3005 3007 3008 3009 3010 3008 3010 3014 3024 3029 3036 3034 3037 3033 3032 3048 3051 3055 3058 3057 3047 3030 3020 3035 3041 3041 3045 3048 3049 3048 3047
2957 2956 2961 2970 2974 2968 2968 2970 2978 2983 2991 2994 2996 2999 2999 3002 3001 3001 3000 3002 3005 3009 3014 3016 3023 3020 3025 3029 3035 3035 3032 3033 3037 3034 3038 3038 2997 3030 3034 3037 3039 3042 3042 3041 3042
2945 2949 2952 2958 2954 2954 2959 2963 2971 2978 2979 2983 2986 2989 2992 2993 2997 2994 2992 2999 3002 3004 3006 3008 3012 3014 3017 3021 3023 3014 3017 3029 3031 3033 3025 3029 2980 3021 3025 3027 3032 3034 3035 3035 3036
2939 2940 2939 2939 2943 2947 2951 2952 2958 2964 2970 2971 2976 2983 2986 2984 2988 2984 2987 2990 2990 2994 2998 3004 3002 2998 2997 2995 3001 3014 3013 3018 3024 3027 2999 3015 2972 3013 3018 3023 3026 3027 3029 3030 3031
2924 2920 2923 2926 2926 2929 2937 2942 2948 2955 2957 2966 2969 2973 2972 2974 2979 2977 2977 2979 2981 2985 2988 2993 2991 2994 2991 2988 3001 3001 3005 3008 3010 2997 3006 2964 2997 3008 3016 3017 3020 3022 3022 3023 3025
2909 2909 2914 2917 2924 2926 2928 2931 2938 2943 2951 2951 2958 2963 2965 2968 2970 2969 2975 2976 2975 2976 2976 2980 2981 2986 2979 2983 2990 2990 2992 2994 2992 2985 2994 2972 2979 3005 3010 3010 3008 3009 3012 3013 3016
2896 2898 2905 2903 2911 2916 2913 2914 2916 2930 2935 2939 2941 2950 2957 2956 2961 2965 2966 2967 2965 2965 2967 2968 2971 2976 2965 2975 2979 2975 2965 2976 2979 2979 2976 2976 2954 2995 2996 2998 2998 3000 3001 3004 3008